Location: Krakow
(50.0830°N, 19.9170°E)
Time: 10:54:25
(UTC+01:00)

Transit 2A - Pass Details

Date: 11 February 2023
Orbit: 591 x 964 km, 66.7° (Epoch: 21 March)

Event Time Altitude Azimuth Distance (km) Brightness Sun altitude
Rises 14:30:41 0° 192° (SSW) 3,015 10.2 17.4°
Reaches altitude 10° 14:32:58 10° 186° (S) 2,157 9.4 17.1°
Maximum altitude 14:37:36 42° 115° (ESE) 1,059 6.8 16.6°
Drops below altitude 10° 14:42:45 10° 46° (NE) 2,407 8.0 16.1°
Sets 14:45:26 0° 40° (NE) 3,407 8.7 15.8°
